EB5EEV-5 Weather Reports


time (UTC)temp
F
wind
direction
speed
knots
gust
knots
rain 1hr
in
rain 24hr
in
rain mn
in
humidity
%
barometer
mb
20221203045420 0 0 0.0 0.0 0.00 0.00 0.00 100
20221203044605 0 0 0.0 0.0 0.00 0.00 0.00 100
20221203043719 0 0 0.0 0.0 0.00 0.00 0.00 100
20221203042759 0 0 0.0 0.0 0.00 0.00 0.00 100
20221203041805 0 0 0.0 0.0 0.00 0.00 0.00 100
20221203040939 0 0 0.0 0.0 0.00 0.00 0.00 100
20221203040025 0 0 0.0 0.0 0.00 0.00 0.00 100
20221203035215 0 0 0.0 0.0 0.00 0.00 0.00 100
20221203034333 0 0 0.0 0.0 0.00 0.00 0.00 100
20221203033505 0 0 0.0 0.0 0.00 0.00 0.00 100
20221203032705 0 0 0.0 0.0 0.00 0.00 0.00 100
20221203031725 0 0 0.0 0.0 0.00 0.00 0.00 100
20221203030905 0 0 0.0 0.0 0.00 0.00 0.00 100
20221203025943 0 0 0.0 0.0 0.00 0.00 0.00 100
20221203025055 0 0 0.0 0.0 0.00 0.00 0.00 100
20221203024225 0 0 0.0 0.0 0.00 0.00 0.00 100
20221203023325 0 0 0.0 0.0 0.00 0.00 0.00 100
20221203022328 0 0 0.0 0.0 0.00 0.00 0.00 100
20221203021350 0 0 0.0 0.0 0.00 0.00 0.00 100
20221203020420 0 0 0.0 0.0 0.00 0.00 0.00 100
20221203015555 0 0 0.0 0.0 0.00 0.00 0.00 100
20221203014755 0 0 0.0 0.0 0.00 0.00 0.00 100
20221203013945 0 0 0.0 0.0 0.00 0.00 0.00 100
20221203013145 0 0 0.0 0.0 0.00 0.00 0.00 100
20221203012159 0 0 0.0 0.0 0.00 0.00 0.00 100
20221203011401 0 0 0.0 0.0 0.00 0.00 0.00 100
20221203010514 0 0 0.0 0.0 0.00 0.00 0.00 100
20221203005555 0 0 0.0 0.0 0.00 0.00 0.00 100
20221203004735 0 0 0.0 0.0 0.00 0.00 0.00 100
20221203003800 0 0 0.0 0.0 0.00 0.00 0.00 100
20221203001830 0 0 0.0 0.0 0.00 0.00 0.00 100
20221203000921 0 0 0.0 0.0 0.00 0.00 0.00 100
20221202235939 0 0 0.0 0.0 0.00 0.00 0.00 100
20221202235045 0 0 0.0 0.0 0.00 0.00 0.00 100
20221202234229 55 0 2.6 4.3 0.00 0.00 0.00 7 1008.6
20221202233350 55 0 2.6 4.3 0.00 0.00 0.00 7 1008.6
20221202232514 56 0 1.7 5.2 0.00 0.00 0.00 7 1008.5
20221202231610 0 0 0.0 0.0 0.00 0.00 0.00 100
20221202230743 56 270 0.9 3.5 0.00 0.00 0.00 7 1008.6
20221202225942 56 270 0.9 3.5 0.00 0.00 0.00 7 1008.9
20221202224955 56 270 1.7 2.6 0.00 0.00 0.00 7 1008.8
20221202223959 57 0 2.6 5.2 0.00 0.00 0.00 7 1009.1
20221202223035 0 0 0.0 0.0 0.00 0.00 0.00 100
20221202222115 57 135 0.9 2.6 0.00 0.00 0.00 6 1009.1
20221202221308 56 270 2.6 6.1 0.00 0.00 0.00 6 1009.2
20221202220400 56 315 0.9 1.7 0.00 0.00 0.00 6 1009.1
20221202215543 56 90 2.6 7.0 0.00 0.00 0.00 6 1009.1
20221202214655 56 0 2.6 5.2 0.00 0.00 0.00 6 1009.2
20221202213715 56 90 2.6 7.8 0.00 0.00 0.00 6 1009.0
20221202212855 56 45 2.6 8.7 0.00 0.00 0.00 6 1009.3
20221202211925 56 0 2.6 7.8 0.00 0.00 0.00 7 1009.3
20221202211120 56 90 3.5 7.0 0.00 0.00 0.00 7 1009.3
20221202210144 56 45 2.6 4.3 0.00 0.00 0.00 7 1009.2
20221202205245 56 0 5.2 9.6 0.00 0.00 0.00 7 1009.2
20221202204445 56 180 2.6 5.2 0.00 0.00 0.00 7 1009.3
20221202203455 56 45 4.3 6.1 0.00 0.00 0.00 7 1009.2
20221202202620 56 45 1.7 3.5 0.00 0.00 0.00 7 1009.1
20221202201655 56 90 2.6 6.1 0.00 0.00 0.00 7 1009.0
20221202200810 56 180 5.2 13.0 0.00 0.00 0.00 7 1009.3
20221202195925 56 270 4.3 10.4 0.00 0.00 0.00 7 1009.0
20221202195110 56 0 4.3 9.6 0.00 0.00 0.00 7 1009.4
20221202194218 56 0 1.7 5.2 0.00 0.00 0.00 7 1009.2
20221202193336 56 180 3.5 7.8 0.00 0.00 0.00 7 1009.3
20221202192509 56 315 2.6 7.0 0.00 0.00 0.00 7 1009.4
20221202191623 56 180 3.5 10.4 0.00 0.00 0.00 7 1009.4
20221202190630 56 45 3.5 7.0 0.00 0.00 0.00 7 1009.5
20221202185710 56 270 5.2 11.3 0.00 0.00 0.00 7 1009.5
20221202184855 56 0 4.3 7.8 0.00 0.00 0.00 7 1009.5
20221202183910 56 270 3.5 7.8 0.00 0.00 0.00 7 1009.4
20221202182915 56 90 2.6 3.5 0.00 0.00 0.00 7 1009.2
20221202182024 56 0 5.2 10.4 0.00 0.00 0.00 7 1009.6
20221202181115 56 315 4.3 7.0 0.00 0.00 0.00 7 1009.4
20221202180208 56 315 3.5 8.7 0.00 0.00 0.00 7 1009.6
20221202175235 56 270 2.6 7.0 0.00 0.00 0.00 7 1009.4
20221202174435 56 270 5.2 8.7 0.00 0.00 0.00 7 1009.8
20221202173602 56 45 3.5 7.0 0.00 0.00 0.00 7 1009.6
20221202172730 55 180 3.5 9.6 0.00 0.00 0.00 7 1010.0
20221202171740 55 45 5.2 9.6 0.00 0.00 0.00 7 1009.8
20221202170835 55 90 3.5 7.8 0.00 0.00 0.00 7 1009.6
20221202165915 55 45 3.5 9.6 0.00 0.00 0.00 7 1009.6
20221202165025 55 90 5.2 7.8 0.00 0.00 0.00 7 1009.5
20221202164135 55 270 2.6 9.6 0.00 0.00 0.00 7 1009.6
20221202163225 55 225 2.6 5.2 0.00 0.00 0.00 7 1009.4
20221202162250 55 270 2.6 5.2 0.00 0.00 0.00 7 1009.6
20221202161408 55 0 0.9 2.6 0.00 0.00 0.00 7 1009.4
20221202160450 55 45 3.5 7.8 0.01 0.00 0.00 7 1009.3
20221202155500 55 45 2.6 7.8 0.01 0.00 0.00 7 1009.2
20221202154625 55 45 3.5 7.8 0.02 0.00 0.00 7 1009.3
20221202153714 55 0 4.3 9.6 0.02 0.00 0.00 7 1009.5
20221202152715 55 90 2.6 5.2 0.02 0.00 0.00 7 1009.4
20221202151900 55 135 3.5 7.8 0.02 0.00 0.00 7 1009.7
20221202150925 55 270 2.6 6.1 0.01 0.00 0.00 7 1009.6
20221202150038 55 0 6.1 11.3 0.01 0.00 0.00 7 1009.7
20221202145210 55 315 4.3 7.0 0.01 0.00 0.00 7 1009.9
20221202144220 55 0 5.2 10.4 0.00 0.00 0.00 7 1009.7
20221202143245 55 270 7.0 13.0 0.00 0.00 0.00 7 1009.7
20221202142350 55 135 5.2 13.0 0.00 0.00 0.00 7 1009.7
20221202141520 55 315 4.3 7.8 0.01 0.00 0.00 7 1009.6
20221202140704 55 45 3.5 10.4 0.01 0.00 0.00 7 1009.5
20221202135845 55 0 3.5 7.8 0.01 0.00 0.00 8 1009.9
20221202134955 54 180 5.2 10.4 0.01 0.00 0.00 8 1009.9
20221202134125 54 45 1.7 3.5 0.01 0.00 0.00 8 1009.9
20221202133243 54 315 3.5 6.1 0.01 0.00 0.00 8 1010.0
20221202132245 54 270 3.5 8.7 0.01 0.00 0.00 8 1010.3
20221202131320 55 270 3.5 8.7 0.00 0.00 0.00 8 1010.2
20221202130415 55 45 4.3 9.6 0.02 0.00 0.00 7 1010.4
20221202125611 55 90 5.2 13.0 0.02 0.00 0.00 7 1010.4
20221202124627 55 0 5.2 14.8 0.05 0.00 0.00 7 1010.7
20221202123819 55 270 6.1 16.5 0.08 0.00 0.00 7 1010.5
20221202122829 54 90 5.2 12.2 0.08 0.00 0.00 8 1010.6
20221202121843 54 0 5.2 10.4 0.08 0.00 0.00 8 1010.5
20221202120921 54 0 3.5 7.8 0.08 0.00 0.00 8 1010.9
20221202120050 54 90 3.5 7.8 0.05 0.00 0.00 8 1010.9
20221202115934 54 90 3.5 7.8 0.05 0.00 0.00 8 1010.9
20221202115132 55 45 5.2 16.5 0.04 0.00 0.00 8 1011.3
20221202114238 55 0 5.2 9.6 0.01 0.00 0.00 7 1011.3
20221202113258 55 180 6.1 11.3 0.00 0.00 0.00 7 1011.3
20221202112329 0 0 0.0 0.0 0.00 0.00 0.00 100
20221202111458 0 0 0.0 0.0 0.00 0.00 0.00 100
20221202110500 0 0 0.0 0.0 0.00 0.00 0.00 100
20221202105644 0 0 0.0 0.0 0.00 0.00 0.00 100
20221202104744 56 0 5.2 13.0 0.00 0.00 0.00 7 1012.0
20221202103824 56 0 5.2 13.0 0.00 0.00 0.00 7 1012.3
20221202103022 0 0 0.0 0.0 0.00 0.00 0.00 100
20221202102158 0 0 0.0 0.0 0.00 0.00 0.00 100
20221202101224 0 0 0.0 0.0 0.00 0.00 0.00 100
20221202100249 0 0 0.0 0.0 0.00 0.00 0.00 100
20221202095309 0 0 0.0 0.0 0.00 0.00 0.00 100
20221202094314 0 0 0.0 0.0 0.00 0.00 0.00 100
20221202093509 0 0 0.0 0.0 0.00 0.00 0.00 100
20221202092658 55 0 4.3 8.7 0.00 0.00 0.00 7 1012.0
20221202071854 57 45 7.8 13.0 0.00 0.00 0.00 6 1011.8
20221202070909 57 45 4.3 7.0 0.00 0.00 0.00 6 1011.6
20221202070049 57 45 3.5 8.7 0.00 0.00 0.00 6 1011.8
20221202065049 57 45 5.2 8.7 0.01 0.00 0.00 6 1011.7
20221202064114 57 0 7.0 11.3 0.01 0.00 0.00 6 1011.7
20221202063145 57 45 6.1 10.4 0.01 0.00 0.00 6 1011.8
20221202062248 56 0 6.1 10.4 0.01 0.00 0.00 6 1011.7
20221202061424 56 90 4.3 7.0 0.01 0.00 0.00 7 1011.8
20221202060559 56 90 1.7 4.3 0.01 0.00 0.00 7 1011.7
20221202055729 55 315 5.2 13.0 0.02 0.00 0.00 6 1011.4
20221202054829 53 135 2.6 7.8 0.01 0.00 0.00 7 1011.7
20221202053854 52 135 1.7 5.2 0.01 0.00 0.00 8 1011.7
20221202053009 53 270 1.7 3.5 0.01 0.00 0.00 8 1011.8
20221202052009 53 0 1.7 2.6 0.01 0.00 0.00 8 1011.8
20221202051144 54 270 2.6 4.3 0.01 0.00 0.00 8 1011.9
20221202050154 54 315 0.9 2.6 0.01 0.00 0.00 7 1011.7